Find Kosmos-683

NORAD ID: 7441 Int'l Des: 1974-072 Owner: GUKOSR Country: SU operational
LEOCIRCULAR

Aktuelle Ansicht

3D-Globus wird geladen...

Über Kosmos-683

Beschreibung wird geladen...

Nächste Überflüge

Passes for default location (London). Set your location on the main map for personalized predictions.

Höhenverlauf

Loading altitude history...

Zweizeiliger Elementsatz

1 07441U 74072G 26146.31654372 -.00000013 00000-0 18958-4 0 9996
2 07441 74.0340 196.3515 0020979 324.3559 35.6092 12.53518669364918
Epoch: 26. Mai 2026 • Age: 6 hours

Aktueller Status

Höhe 1459.4 km
Geschwindigkeit 7.14 km/s
Subsatellitenpunkt 54.35°N, 130.54°E
Typ other

Most Searched